Weather History for KBED - August, 2014

Change the Weather History Date:

Tuesday, August 19, 2014

  Actual Average Record
Temperature  
Mean Temperature 62 °F -  
Max Temperature 78 °F 78 °F 92 °F (1966)
Min Temperature 46 °F 56 °F 42 °F (1968)
Degree Days  
Heating Degree Days 4    
Growing Degree Days 12 (Base 50)    
Moisture  
Dew Point 52 °F    
Average Humidity 73    
Maximum Humidity 100    
Minimum Humidity 41    
Precipitation  
Precipitation 0.00 in - - ()
Sea Level Pressure  
Sea Level Pressure 29.94 in    
Wind  
Wind Speed 2 mph (NNE)    
Max Wind Speed 12 mph    
Max Gust Speed -    
Visibility 10 miles    
Events      
Averages and records for this station are not official NWS values.
T = Trace of Precipitation, MM = Missing Value Source: NWS Daily Summary

Daily Weather History Graph

Daily Weather History Graph

Search for Another Location

Airport or City:

Trip Planner

Search our weather history database for the weather conditions in past years. The results will help you decide how hot, cold, wet, or windy it might be!

Date:

Astronomy

Aug. 19, 2014 Rise Set
Actual Time 5:56 AM EDT 7:40 PM EDT
Civil Twilight 5:26 AM EDT 8:10 PM EDT
Nautical Twilight 4:49 AM EDT 8:46 PM EDT
Astronomical Twilight 4:10 AM EDT 9:25 PM EDT
Moon 12:43 AM EDT (8/19) 3:36 PM EDT (8/19)
Length of Visible Light 14h 43m
Length of Day
13h 44m
Waning Crescent, 29% of the Moon is Illuminated
Aug 19
Waning Crescent
Aug 25
New
Sep 2
First Quarter
Sep 8
Full
Sep 15
Last Quarter

Hourly Weather History & Observations

Time (EDT) Temp. Dew Point Humidity Pressure Visibility Wind Dir Wind Speed Gust Speed Precip Events Conditions
12:56 AM 51.1 °F 50.0 °F 96% 29.91 in 10.0 mi West 3.5 mph - N/A   Clear
1:56 AM 51.1 °F 50.0 °F 96% 29.91 in 10.0 mi Calm Calm - N/A   Clear
2:56 AM 48.9 °F 48.9 °F 100% 29.91 in 10.0 mi Calm Calm - N/A   Clear
3:56 AM 48.9 °F 48.0 °F 97% 29.91 in 10.0 mi Calm Calm - N/A   Clear
4:56 AM 46.9 °F 46.9 °F 100% 29.93 in 10.0 mi Calm Calm - N/A   Clear
5:56 AM 46.0 °F 46.0 °F 100% 29.94 in 10.0 mi Calm Calm - N/A   Clear
6:56 AM 50.0 °F 48.9 °F 96% 29.94 in 10.0 mi Calm Calm - N/A   Clear
7:56 AM 55.9 °F 53.1 °F 90% 29.95 in 10.0 mi Calm Calm - N/A   Clear
8:56 AM 63.0 °F 53.1 °F 70% 29.96 in 10.0 mi NNW 5.8 mph - N/A   Clear
9:56 AM 66.0 °F 54.0 °F 65% 29.96 in 10.0 mi Calm Calm - N/A   Clear
10:56 AM 68.0 °F 53.1 °F 59% 29.97 in 10.0 mi Calm Calm - N/A   Clear
11:56 AM 72.0 °F 53.1 °F 51% 29.96 in 10.0 mi WNW 6.9 mph - N/A   Clear
12:56 PM 73.0 °F 53.1 °F 49% 29.95 in 10.0 mi Calm Calm - N/A   Clear
1:56 PM 75.0 °F 53.1 °F 46% 29.94 in 10.0 mi Variable 5.8 mph - N/A   Clear
2:56 PM 75.0 °F 52.0 °F 44% 29.93 in 10.0 mi Variable 3.5 mph - N/A   Clear
3:56 PM 77.0 °F 52.0 °F 42% 29.92 in 10.0 mi Calm Calm - N/A   Clear
4:56 PM 77.0 °F 51.8 °F 41% 29.89 in 10.0 mi Calm Calm - N/A   Clear
5:56 PM 75.9 °F 51.1 °F 42% 29.94 in 10.0 mi Calm Calm - N/A   Clear
6:56 PM 70.0 °F 55.0 °F 59% 29.94 in 10.0 mi ESE 11.5 mph - N/A   Clear
7:56 PM 64.9 °F 52.0 °F 63% 29.96 in 10.0 mi East 5.8 mph - N/A   Clear
8:56 PM 62.1 °F 53.1 °F 72% 29.97 in 10.0 mi East 4.6 mph - N/A   Clear
9:56 PM 57.9 °F 54.0 °F 87% 29.97 in 10.0 mi Calm Calm - N/A   Clear
10:56 PM 57.0 °F 54.0 °F 89% 29.98 in 10.0 mi Calm Calm - N/A   Clear
11:56 PM 54.0 °F 53.1 °F 97% 29.99 in 10.0 mi Calm Calm - N/A   Clear